[[{"header":{"parameterUnit":"m.s-1","parameterCategory":1,"la1":30.2991,"la2":30.254,"lo1":-89.0895,"lo2":-89.0444,"dy":0.0017,"dx":0.0017,"nx":28,"ny":28,"refTime":"2024-08-24T21:00:00:Z","depth":0,"parameterNumber":2,"parameterNumberName":"U-component_of_WINDS"},"data":[0,0,0,0,0,0,0,0,0,0,0,0,0,0,0,0,0,0,0,0,0,0,0,0,0,0,0,0,0,0,0,0,0,0,0,0,0,0,0,0,0,0,0,0,0,0,0,0,0,0,0,0,0,0,0,0,0,0,-2.2885,-2.2885,0,-2.2923,-2.2923,-2.2923,-2.285,-2.2848,-2.2846,-2.2843,-2.2883,-2.2886,-2.2889,0,0,0,0,0,0,0,0,0,0,0,0,0,-2.2752,-2.2755,-2.2885,-2.2885,-2.2886,-2.2923,-2.2923,-2.2924,-2.2851,-2.2848,-2.2845,-2.2842,-2.2882,-2.2886,-2.289,0,0,0,0,0,0,0,0,0,0,0,0,0,-2.2802,-2.2756,-2.2885,-2.2854,-2.2852,-2.2922,-2.2923,-2.2924,-2.2851,-2.2848,-2.2844,-2.2841,-2.288,-2.2885,-2.289,-2.2993,0,0,-2.2905,-2.2907,0,0,0,0,0,0,0,0,-2.2799,-2.2807,-2.2858,-2.2856,-2.2854,-2.2878,-2.289,-2.2947,-2.2852,-2.2852,-2.2843,-2.2839,-2.2884,-2.2889,-2.2904,-2.2995,-2.2996,-2.2906,-2.2909,-2.2911,-2.2912,0,0,0,0,0,0,0,-2.2796,-2.2805,-2.29,-2.2859,-2.2856,-2.2839,-2.2842,-2.2901,-2.2888,-2.2851,-2.2846,-2.2852,-2.2882,-2.2899,-2.2904,-2.2997,-2.2905,-2.291,-2.2913,-2.2915,-2.3176,-2.318,0,0,0,0,0,0,-2.2796,-2.2802,-2.2899,-2.2901,-2.2817,-2.2844,-2.2848,-2.2874,-2.2887,-2.2885,-2.2855,-2.2848,-2.2892,-2.2898,-2.2905,-2.3027,-2.2911,-2.2915,-2.2918,-2.3172,-2.3177,-2.3181,0,0,0,0,0,0,-2.2793,-2.2805,-2.2897,-2.285,-2.2861,-2.285,-2.2881,-2.2877,-2.2893,-2.2889,-2.2887,-2.2874,-2.289,-2.2898,-2.2972,-2.3028,-2.2918,-2.2922,-2.3167,-2.3174,-2.3179,-2.3272,0,0,0,0,0,0,-2.279,-2.2805,-2.2843,-2.2852,-2.2863,-2.2963,-2.2884,-2.288,-2.2902,-2.2894,-2.2907,-2.2906,-2.2888,-2.2965,-2.2977,-2.3032,-2.2926,-2.3162,-2.317,-2.3177,-2.3264,-2.3281,-2.3295,0,0,0,0,0,-2.2785,-2.2868,-2.2845,-2.2858,-2.2911,-2.2966,-2.2973,-2.295,-2.2907,-2.2946,-2.2943,-2.2905,-2.302,-2.2973,-2.2986,-2.3044,-2.3159,-2.3168,-2.3177,-2.3257,-2.3277,-2.3294,0,0,0,0,0,0,-2.2866,-2.2868,-2.2844,-2.2931,-2.2949,-2.2954,-2.3002,-2.2972,-2.3003,-2.2994,-2.2965,-2.2969,-2.3049,-2.3053,-2.3002,-2.3145,-2.3082,-2.3094,-2.3139,-2.3158,-2.3173,-2.317,-2.293,0,0,0,0,0,-2.2894,-2.2938,-2.2938,-2.3015,-2.3025,-2.3013,-2.3036,-2.3017,-2.3034,-2.3042,-2.3045,-2.3064,-2.3104,-2.3131,-2.3168,-2.3264,-2.3267,-2.3311,-2.3326,-2.3339,-2.3349,-2.3402,-2.3422,-2.3211,-2.321,-2.321,0,0,-2.2952,-2.2959,-2.2988,-2.3032,-2.3043,-2.309,-2.3019,-2.3072,-2.3107,-2.305,-2.312,-2.3123,-2.3142,-2.3228,-2.3266,-2.3235,-2.3409,-2.335,-2.336,-2.3364,-2.3414,-2.3434,-2.3451,-2.3217,-2.3216,-2.3215,0,0,-2.3082,-2.3092,-2.3157,-2.3171,-2.319,-2.3181,-2.3197,-2.3207,-2.3207,-2.3276,-2.3235,-2.3276,-2.3346,-2.3362,-2.3379,-2.3517,-2.3484,-2.353,-2.361,-2.3662,-2.3679,-2.3694,-2.3744,-2.3762,-2.3541,-2.3541,-2.3541,0,-2.3152,-2.3221,-2.3195,-2.3251,-2.3272,-2.3222,-2.329,-2.3304,-2.3334,-2.335,-2.3314,-2.3402,-2.3411,-2.3501,-2.3535,-2.355,-2.3568,-2.3529,-2.3678,-2.3693,-2.3706,-2.3754,-2.3773,-2.3547,-2.3546,-2.3546,-2.3545,0,-2.3307,-2.3356,-2.3407,-2.3437,-2.3464,-2.3525,-2.3509,-2.3539,-2.3518,-2.3514,-2.3586,-2.3596,-2.3635,-2.3654,-2.3635,-2.3742,-2.3722,-2.3683,-2.3619,-2.3732,-2.3777,-2.3795,-2.3555,-2.3553,-2.3551,-2.355,0,0,-2.3488,-2.3505,-2.3524,-2.3538,-2.3555,-2.3593,-2.3653,-2.369,-2.3717,-2.374,-2.379,-2.3851,-2.3815,-2.3835,-2.3816,-2.3862,-2.3973,-2.3817,-2.3817,-2.3847,-2.4093,-2.4123,-2.4145,-2.395,-2.3954,-2.3956,-2.4092,0,-2.3618,-2.372,-2.37,-2.38,-2.3845,-2.38,-2.3852,-2.3869,-2.3867,-2.3905,-2.3903,-2.3947,-2.3896,-2.3908,-2.3951,-2.395,-2.4022,-2.394,-2.3998,-2.4,-2.3995,-2.4168,-2.4199,-2.4326,-2.4109,-2.4112,-2.4114,0,-2.3783,-2.3813,-2.3918,-2.393,-2.3948,-2.3995,-2.4029,-2.4066,-2.4085,-2.408,-2.4103,-2.4076,-2.4137,-2.4072,-2.4156,-2.4101,-2.4123,-2.4127,-2.4131,-2.4136,-2.4064,-2.4178,-2.4366,-2.4386,-2.4141,-2.4139,-2.4137,0,-2.3906,-2.3972,-2.4044,-2.4057,-2.4072,-2.4107,-2.4115,-2.413,-2.4155,-2.4184,-2.42,-2.4237,-2.4257,-2.4286,-2.4271,-2.4225,-2.4358,-2.4291,-2.4356,-2.4357,-2.4386,-2.4385,-2.4582,-2.44,-2.44,-2.4399,-2.4399,0,-2.4054,-2.412,-2.4099,-2.4144,-2.4217,-2.4193,-2.4267,-2.4269,-2.4284,-2.4329,-2.4291,-2.4334,-2.4311,-2.4353,-2.4341,-2.4413,-2.4422,-2.442,-2.4417,-2.4424,-2.4425,-2.4439,-2.443,-2.4405,-2.4403,-2.4402,-2.4402,0,-2.4204,-2.4192,-2.4268,-2.4276,-2.428,-2.4334,-2.4342,-2.4384,-2.4379,-2.4436,-2.4448,-2.4441,-2.4488,-2.4475,-2.4526,-2.4519,-2.461,-2.4594,-2.4603,-2.46,-2.4666,-2.466,-2.4879,-2.4907,-2.4707,-2.4709,-2.471,0,-2.4299,-2.4349,-2.4363,-2.439,-2.4401,-2.4446,-2.4471,-2.4449,-2.4477,-2.4503,-2.4542,-2.4586,-2.462,-2.4698,-2.4698,-2.4737,-2.4723,-2.4797,-2.4728,-2.4735,-2.4725,-2.4723,-2.4728,-2.4811,-2.4813,-2.4815,-2.4816,0,-2.447,-2.4462,-2.4499,-2.4535,-2.4566,-2.4593,-2.4617,-2.4642,-2.4622,-2.4655,-2.4703,-2.4729,-2.4782,-2.4827,-2.4863,-2.4872,-2.4842,-2.4838,-2.4855,-2.4864,-2.4867,-2.4868,-2.4641,-2.4833,-2.4831,-2.483,-2.4829,-2.4829,-2.4596,-2.4639,-2.4656,-2.4699,-2.4715,-2.4738,-2.4778,-2.4779,-2.4818,-2.4859,-2.4844,-2.4899,-2.4919,-2.4964,-2.4978,-2.5022,-2.4994,-2.5018,-2.5025,-2.5031,-2.504,-2.486,-2.5028,-2.5028,-2.5027,-2.5027,-2.5026,0,-2.4765,-2.4774,-2.4814,-2.4849,-2.4884,-2.4851,-2.4877,-2.4908,-2.4957,-2.4977,-2.5011,-2.5067,-2.511,-2.5114,-2.5155,-2.519,-2.5177,-2.5201,-2.5199,-2.5202,-2.5062,-2.5044,-2.5211,-2.5211,-2.5211,-2.5211,-2.5211,-2.5211,-2.4858,-2.4929,-2.4924,-2.5003,-2.5011,-2.5065,-2.5082,-2.5105,-2.5121,-2.5184,-2.522,-2.5222,-2.5236,-2.5278,-2.5317,-2.5317,-2.5335,-2.5365,-2.536,-2.523,-2.5211,-2.5194,-2.5176,-2.5369,-2.5369,-2.5496,-2.5497,-2.5498]},{"header":{"parameterUnit":"m.s-1","parameterCategory":1,"la1":30.2991,"la2":30.254,"lo1":-89.0895,"lo2":-89.0444,"dy":0.0017,"dx":0.0017,"nx":28,"ny":28,"refTime":"2024-08-24T21:00:00:Z","depth":0,"parameterNumber":3,"parameterNumberName":"V-component_of_WINDS"},"data":[0,0,0,0,0,0,0,0,0,0,0,0,0,0,0,0,0,0,0,0,0,0,0,0,0,0,0,0,0,0,0,0,0,0,0,0,0,0,0,0,0,0,0,0,0,0,0,0,0,0,0,0,0,0,0,0,0,0,0.2775,0.2775,0,0.2768,0.2768,0.2768,0.2775,0.2775,0.2776,0.2776,0.2764,0.2764,0.2763,0,0,0,0,0,0,0,0,0,0,0,0,0,0.2794,0.2794,0.2775,0.2775,0.2775,0.2768,0.2768,0.2768,0.2775,0.2775,0.2776,0.2776,0.2765,0.2764,0.2763,0,0,0,0,0,0,0,0,0,0,0,0,0,0.2786,0.2794,0.2775,0.2778,0.2778,0.2768,0.2768,0.2767,0.2775,0.2775,0.2776,0.2776,0.2765,0.2764,0.2763,0.2749,0,0,0.276,0.276,0,0,0,0,0,0,0,0,0.2787,0.2785,0.2778,0.2778,0.2778,0.2773,0.277,0.2761,0.2775,0.2776,0.2776,0.2776,0.2767,0.2766,0.2763,0.2748,0.2748,0.276,0.276,0.2759,0.2759,0,0,0,0,0,0,0,0.2787,0.2786,0.2772,0.2778,0.2778,0.2779,0.2778,0.2768,0.2769,0.2776,0.2776,0.2776,0.2767,0.2764,0.2763,0.2747,0.276,0.276,0.2759,0.2759,0.2721,0.2721,0,0,0,0,0,0,0.2788,0.2786,0.2772,0.2772,0.2784,0.2778,0.2778,0.2774,0.2769,0.2769,0.2775,0.2776,0.2765,0.2764,0.2762,0.2746,0.2759,0.2759,0.2758,0.2722,0.2721,0.2721,0,0,0,0,0,0,0.2788,0.2787,0.2773,0.2779,0.2778,0.2778,0.2773,0.2774,0.2771,0.2768,0.2768,0.2772,0.2765,0.2764,0.2753,0.2745,0.2758,0.2757,0.2722,0.2722,0.2721,0.2712,0,0,0,0,0,0,0.2789,0.2787,0.2781,0.2779,0.2777,0.2763,0.2773,0.2773,0.277,0.2771,0.2766,0.2765,0.2766,0.2754,0.2752,0.2744,0.2757,0.2723,0.2722,0.2721,0.2713,0.2711,0.2709,0,0,0,0,0,0.2789,0.2778,0.2781,0.2779,0.2771,0.2763,0.2762,0.2764,0.2769,0.2764,0.2762,0.2765,0.2747,0.2753,0.275,0.2743,0.2723,0.2722,0.2721,0.2713,0.2711,0.2709,0,0,0,0,0,0,0.2778,0.2778,0.2781,0.2769,0.2766,0.2764,0.2757,0.2761,0.2756,0.2756,0.2758,0.2757,0.2745,0.2743,0.2749,0.2729,0.2736,0.2734,0.2731,0.2728,0.2727,0.2727,0.2756,0,0,0,0,0,0.2774,0.2769,0.2769,0.2758,0.2756,0.2757,0.2754,0.2756,0.2752,0.2751,0.2749,0.2744,0.2738,0.2733,0.2727,0.2713,0.2712,0.2706,0.2705,0.2703,0.2702,0.2695,0.2692,0.2717,0.2717,0.2717,0,0,0.2766,0.2765,0.2761,0.2755,0.2753,0.2747,0.2756,0.2749,0.2744,0.2749,0.2739,0.2737,0.2733,0.2721,0.2715,0.2718,0.2695,0.2702,0.2701,0.27,0.2693,0.2691,0.2689,0.2716,0.2717,0.2717,0,0,0.2747,0.2747,0.2738,0.2736,0.2734,0.2735,0.2733,0.2731,0.2731,0.2721,0.2725,0.2719,0.2708,0.2705,0.2701,0.2684,0.2687,0.2682,0.2673,0.2666,0.2664,0.2662,0.2656,0.2654,0.2681,0.2681,0.2681,0,0.2737,0.2728,0.2733,0.2726,0.2723,0.273,0.2721,0.2719,0.2714,0.2712,0.2716,0.2703,0.27,0.2687,0.2683,0.2681,0.2678,0.2682,0.2664,0.2663,0.2661,0.2655,0.2653,0.268,0.268,0.268,0.268,0,0.2716,0.271,0.2703,0.27,0.2697,0.2689,0.2692,0.2688,0.269,0.2691,0.2681,0.2679,0.2672,0.267,0.2671,0.2658,0.266,0.2664,0.2671,0.2658,0.2653,0.265,0.2679,0.2679,0.268,0.268,0,0,0.2688,0.2689,0.2687,0.2686,0.2685,0.268,0.2672,0.2668,0.2665,0.2662,0.2655,0.2646,0.2651,0.2647,0.2649,0.2643,0.2631,0.2649,0.2648,0.2645,0.2616,0.2612,0.2609,0.2633,0.2633,0.2632,0.2616,0,0.267,0.2658,0.2662,0.265,0.2645,0.2652,0.2646,0.2644,0.2645,0.264,0.264,0.2634,0.2641,0.2639,0.2634,0.2633,0.2625,0.2635,0.2626,0.2626,0.2627,0.2607,0.2602,0.2587,0.2614,0.2614,0.2613,0,0.2646,0.2644,0.2632,0.2633,0.2631,0.2625,0.2622,0.2617,0.2616,0.2617,0.2614,0.2618,0.261,0.2618,0.2608,0.2615,0.2612,0.2612,0.2611,0.261,0.2618,0.2604,0.2582,0.2579,0.261,0.261,0.261,0,0.2627,0.2621,0.2613,0.2612,0.2613,0.2609,0.2609,0.2609,0.2606,0.2603,0.2602,0.2597,0.2595,0.2592,0.2594,0.2599,0.2583,0.2591,0.2583,0.2583,0.2578,0.2579,0.2555,0.2578,0.2578,0.2578,0.2578,0,0.2606,0.2598,0.2605,0.26,0.2591,0.2597,0.2588,0.2589,0.2588,0.2583,0.2589,0.2584,0.2588,0.2583,0.2585,0.2577,0.2575,0.2576,0.2576,0.2575,0.2575,0.2572,0.2573,0.2577,0.2577,0.2577,0.2578,0,0.2582,0.2587,0.2579,0.2581,0.2582,0.2575,0.2577,0.2573,0.2575,0.2568,0.2567,0.257,0.2565,0.2568,0.2562,0.2563,0.2552,0.2554,0.2553,0.2553,0.2545,0.2546,0.2519,0.2515,0.2541,0.254,0.254,0,0.2568,0.2562,0.2565,0.2563,0.2563,0.2559,0.2557,0.2563,0.256,0.2559,0.2555,0.2551,0.2548,0.2539,0.2541,0.2537,0.2538,0.2529,0.2537,0.2537,0.2538,0.2538,0.2537,0.2527,0.2527,0.2526,0.2526,0,0.2542,0.2545,0.2542,0.2541,0.2539,0.2538,0.2537,0.2535,0.2541,0.2538,0.2534,0.2531,0.2527,0.2523,0.252,0.2519,0.2523,0.2524,0.2522,0.252,0.2519,0.252,0.2548,0.2524,0.2524,0.2524,0.2525,0.2525,0.2522,0.2518,0.252,0.2517,0.2518,0.2517,0.2513,0.2516,0.2513,0.2511,0.2514,0.2509,0.2509,0.2506,0.2505,0.2501,0.2504,0.2501,0.25,0.2499,0.2498,0.2521,0.25,0.25,0.25,0.2501,0.2501,0,0.2496,0.2499,0.2496,0.2496,0.2494,0.25,0.25,0.2498,0.2494,0.2494,0.2492,0.2487,0.2484,0.2486,0.2483,0.2479,0.2481,0.2478,0.2478,0.2478,0.2495,0.2497,0.2477,0.2477,0.2477,0.2477,0.2477,0.2477,0.2483,0.2476,0.248,0.2473,0.2475,0.2471,0.2471,0.2471,0.2471,0.2467,0.2464,0.2466,0.2467,0.2465,0.2462,0.2463,0.2461,0.2457,0.2458,0.2474,0.2477,0.2479,0.2481,0.2457,0.2457,0.2441,0.2441,0.2441]}]]